COSMOS 886 DEB, 9819

Orbit data source: Space-Track

COSMOS 886 DEB, 9819 is space debris in LEO originally from a launch on Mon, 27 Dec 1976 UTC launched from the Tyuratam Missile And Space Complex (TTMTR). Debris objects in space refer to the collection of defunct objects orbiting the Earth. Examples of debris include non-operational satellites, rocket bodies, and fragments generated from explosions, collisions, or faulty payload assembly.

Loading next visibility...
Identifier
9819, 1976-126AF
Orbit
LEO
Country
Flag of CISCIS
Related business
Manufacturer
Unknown
Mission
Spacecraft
Bus & Motor
Unknown
Mass
Unknown
Launch date (UTC)
1976-12-27 (49 years ago)
Launch vehicle
Unknown
Launch site
Tyuratam Missile And Space Complex (TTMTR)
Object type
Payload
Rocket body
Debris
Shape & HBR
Unknown shape, 0.1 m
Radar Cross Section
Medium (>0.1 m² and <1 m²)

Expand to show TLE details & history
Last TLE update: 19 hours ago

TLE from 19 hours ago
0 COSMOS 886 DEB
1 09819U 76126AF  26175.22057286  .00002731  00000-0  40167-3 0  9996
2 09819  65.8851  85.9626 0414618 199.9199 158.5293 14.32445984436582
Epoch: 2026-06-24T05:17Z
TLE epoch observation values (Epoch: 2026-06-24T05:17:37.495Z)
Latitude
-0.00003°
Longitude
94.17545°
Altitude
1,063.53 km
Speed
7.177 km/s
True Right ascension
05h 43m 51s
True Declination
0° 00' 00"
Sunlit
Object was in daylight at epoch
Visualization orbit readout
Latitude
Unknown
Longitude
Unknown
Altitude
Unknown
Speed
Unknown
Apparent Right ascension
Unknown
Apparent Declination
Unknown
Sunlit
N/A
Visualization observer readout
Local Sidereal Time
11:19:03
Azimuth
Unknown
Elevation
Unknown
Doppler factor
Unknown
Orbital elements
Apogee altitude
1,078.906 km
Perigee altitude
485.159 km
Semi-major axis
7,160.169 km
Eccentricity
0.04146
Inclination
65.8851°
RAAN
85.9626°
Arg. of periapsis
199.9199°
True anomaly
160.18797°
Mean anomaly
158.5293°
Eccentric anomaly
159.36643°
Mean motion
3.58227 °/min
Orbital period
100.49 mins
BSTAR
0.00040167
Loading maneuver chart data...
Computing Atmospheric mass density...
Loading historical data...
Loading historical data...
Loading historical data...
Loading historical data...
Loading historical data...
Loading historical data...
Loading historical data...

Documentation

Showing up to 5 results
|